Weather in Moncton

Canada     46°05′11″N   64°46′56″W
temp.,
°C
wind,
m/s
gust,
m/s
humid.,
%
clouds,
%
prec.,
mm/h
press.,
hPa
HPBL,
m
8 march, mon
mon823:00−9wnw239267 0.0 102461
02:00−12w239433 0.0 102431
05:00−13w22940 0.0 102427
08:00−11wnw25920 0.0 1026180
11:00−5nnw238336 0.0 1025479
14:00−2n228267 0.0 1024701
17:00−3nnw238799 0.1 1023459
20:00−6nne1196100 0.1 102521
9 march, tue
tue923:00−7ssw229391 0.0 102522
02:00−8sw229370 0.0 102527
05:00−8wsw23940 0.0 102378
08:00−6sw25911 0.0 1023189
11:000wsw36822 0.0 1021992
14:00+1sw359151 0.1 1020659
17:000wnw1299100 1.8 1020165
20:00−3wnw229599 2.7 102330
10 march, wed
wed1023:00−5nw239773 0.0 102475
02:00−7wnw229439 0.0 102762
05:00−8wnw12950 0.0 102925
08:00−6w35920 0.0 1031191
11:000w23872 0.0 1032382
14:00+3sw237728 0.0 1030469
17:00+3ssw238835 0.0 1030114
20:00−1ssw378859 0.0 1030163
11 march, thu
thu1123:00−1ssw31282100 0.0 1028333
02:00+1sw41482100 0.0 1027508
05:00+2ssw41485100 0.0 1025495
08:00+3sw51589100 0.0 1023618
11:00+4sw51589100 0.0 1021529
14:00+6sw61788100 0.1 1019633
17:00+8sw6168191 0.0 1017612
20:00+5sw4168879 0.0 1016512
12 march, fri
fri1223:00+6sw41391100 0.0 1016394
02:00+6sw41191100 0.0 1014277
05:00+5ssw2496100 0.5 1013101
08:00+5s2397100 1.6 101180
11:00+7ssw41295100 0.4 1008513
14:00+10wsw61389100 0.5 1005785
17:00+8wsw41295100 0.8 1005450
20:00+2nnw4109393 0.9 1007546